Weather Roundup
Issued by NWS Corpus Christi, TX

Home | Current Version | Previous Version | Text Only | Print | Product List | Glossary On
Versions: 1 2 3 4 5 6 7 8 9 10 11 12 13 14 15 16 17 18 19 20 21 22 23 24 25 26 27 28 29 30 31 32 33 34 35 36 37 38 39 40 41 42 43 44 45 46 47 48 49 50
000
ASUS44 KCRP 301110
HRRCRP

SOUTH TEXAS REGIONAL WEATHER ROUNDUP
NATIONAL WEATHER SERVICE CORPUS CHRISTI TX
600 AM CDT SAT JUL 30 2016


TXZ229>244-301200-
...CORPUS CHRISTI AREA OBSERVATIONS...

CITY           SKY/WX    TMP DP  RH WIND       PRES   REMARKS
CORPUS CHRISTI PTCLDY    78  76  93 SE6       29.98R
NAS CORPUS CHR   N/A    N/A N/A N/A MISG      29.98R
ROCKPORT       CLEAR     80  76  87 SW3       29.98S
KINGSVILLE NAS CLEAR     74  74 100 E3        29.98R
ALICE          PTCLDY    73  72  96 E5        29.98R FOG
FALFURRIAS     CLEAR     75  73  92 CALM      29.98R
$$

...VICTORIA AREA OBSERVATIONS...

CITY           SKY/WX    TMP DP  RH WIND       PRES   REMARKS
VICTORIA       LGT RAIN  75  74  96 E5        30.00S
BEEVILLE       FAIR      69  69 100 CALM      30.00R FOG
PLEASANTON     PTCLDY    75  74  95 CALM      30.01S FOG
SAN ANTONIO    PTCLDY    77  74  90 S5        30.02S
$$

...LAREDO AREA OBSERVATIONS...

CITY           SKY/WX    TMP DP  RH WIND       PRES   REMARKS
LAREDO         PTCLDY    75  73  93 E6        29.98R
COTULLA        PTCLDY    75  70  84 E5        30.00R
DEL RIO        CLOUDY    76  68  76 SE7       29.99S
MCALLEN        CLEAR     79  74  84 SE6       29.96S
HEBBRONVILLE   CLEAR     75  73  94 SE6       30.00R
$$

...OTHER TEXAS OBSERVATIONS...

CITY           SKY/WX    TMP DP  RH WIND       PRES   REMARKS
BROWNSVILLE    CLEAR     78  76  93 CALM      29.96S
HOUSTON        PTCLDY    77  75  93 CALM      30.01S
COL. STATION   CLEAR     76  75  97 CALM      30.01S
AUSTIN         PTCLDY    74  73  97 S3        30.01S
WACO           CLOUDY    79  72  79 S9        30.00R
FORT WORTH     PTCLDY    82  70  66 SW10      29.97R
WICHITA FALLS  CLEAR     75  69  81 S9        29.95S
LUBBOCK        CLOUDY    69  59  70 E7        30.06F
EL PASO        MOCLDY    76  61  59 SE10      30.06S
$$

...MARINE OBSERVATIONS...

STATION/POSITION TIME  SKY/WX   TEMP    WIND        PRES    VSBY  WAVE   SWELL
                                AIR SEA DIR/SP/G                  HT/PER HT/PER
                 (UTC)          (F)     (DEG/KT/KT) (MB)    (MI)  (FT/S) (FT/S)
PORT ARANSAS     1100            83 87  190/  7/  8 1015.3R
BUOY 90 E PORT A 1050            85 86  190/  8/ 10 1015.7R         2/ 5   2/ 5
BUOY 45 SE BAFFI 1050            84 85  170/ 10/ 12 1014.5R         3/ 5   2/ 5
BUOY 200 E PT IS 1050            85 86  180/ 10/ 10 1014.6R         2/ 8   2/ 8
BUOY 15 E GALVES 1050            85 87  240/  6/  8 1015.9R         2/ 4   2/ 5
$$




USA.gov is the U.S. government's official web portal to all federal, state and local government web resources and services.